Lander, WY

6:19 PM MDT on August 16, 2017 (GMT -0600)
Hunt

Weather History for KLND - December, 2012

Change the Weather History Date:

Friday, December 28, 2012

  Actual Average Record
Temperature  
Mean Temperature 16 °F 20 °F  
Max Temperature 29 °F 32 °F 58 °F (1945)
Min Temperature 3 °F 9 °F -17 °F (1900)
Degree Days  
Heating Degree Days 49 45  
Month to date heating degree days 1091 1242  
Since 1 July heating degree days 2590 3115  
Cooling Degree Days 0 0  
Month to date cooling degree days 0 0  
Year to date cooling degree days 779 472  
Moisture  
Dew Point 4 °F    
Average Humidity 65    
Maximum Humidity 88    
Minimum Humidity 42    
Precipitation  
Precipitation 0.00 in 0.01 in 0.37 in (1972)
Month to date precipitation 0.40 0.53  
Year to date precipitation 6.60 12.61  
Snow  
Snow 0.00 in 0.30 in - ()
Month to date snowfall 5.3 9.3  
Since 1 July snowfall 15.7 34.9  
Snow Depth 3.00 in    
Sea Level Pressure  
Sea Level Pressure 30.15 in    
Wind  
Wind Speed 2 mph (SE)    
Max Wind Speed 12 mph    
Max Gust Speed 13 mph    
Visibility 10 miles    
Events      
T = Trace of Precipitation, MM = Missing Value Source: NWS Daily Summary

Daily Weather History Graph

Daily Weather History Graph

Search for Another Location

Airport or City:

Trip Planner

Search our weather history database for the weather conditions in past years. The results will help you decide how hot, cold, wet, or windy it might be!

Date:

Astronomy

Dec. 28, 2012 Rise Set
Actual Time 7:45 AM MST 4:48 PM MST
Civil Twilight 7:12 AM MST 5:20 PM MST
Nautical Twilight 6:37 AM MST 5:56 PM MST
Astronomical Twilight 6:02 AM MST 6:30 PM MST
Moon 5:29 PM MST (12/28) 7:40 AM MST (12/28)
Length of Visible Light 10h 07m
Length of Day
9h 03m
Full, 100% of the Moon is Illuminated
Dec 28
Full
Jan 4
Last Quarter
Jan 11
New
Jan 18
First Quarter
Jan 26
Full

Hourly Weather History & Observations

Time (MST) Temp. Windchill Dew Point Humidity Pressure Visibility Wind Dir Wind Speed Gust Speed Precip Events Conditions
12:53 AM 7.0 °F - 3.0 °F 84% 30.05 in 10.0 mi Calm Calm - N/A   Clear
1:53 AM 7.0 °F - 3.0 °F 84% 30.06 in 10.0 mi Calm Calm - N/A   Clear
2:53 AM 6.1 °F - 3.0 °F 87% 30.09 in 10.0 mi Calm Calm - N/A   Clear
3:53 AM 8.1 °F - 3.0 °F 80% 30.07 in 10.0 mi Calm Calm - N/A   Clear
4:53 AM 6.1 °F - 1.0 °F 80% 30.09 in 10.0 mi Calm Calm - N/A   Clear
5:53 AM 7.0 °F - 1.0 °F 77% 30.11 in 10.0 mi Calm Calm - N/A   Clear
6:53 AM 3.9 °F - -0.0 °F 84% 30.14 in 10.0 mi Calm Calm - N/A   Clear
7:53 AM 6.1 °F -2.8 °F -0.0 °F 76% 30.15 in 10.0 mi East 4.6 mph - N/A   Clear
8:53 AM 10.9 °F - 3.9 °F 73% 30.15 in 10.0 mi Calm Calm - N/A   Clear
9:53 AM 14.0 °F 6.5 °F 5.0 °F 67% 30.17 in 10.0 mi ESE 4.6 mph - N/A   Clear
10:53 AM 19.0 °F 13.9 °F 7.0 °F 59% 30.15 in 10.0 mi SSE 3.5 mph - N/A   Clear
11:53 AM 23.0 °F 18.4 °F 8.1 °F 53% 30.14 in 10.0 mi ESE 3.5 mph - N/A   Clear
12:53 PM 26.1 °F - 9.0 °F 49% 30.12 in 10.0 mi Calm Calm - N/A   Clear
1:53 PM 28.0 °F - 9.0 °F 45% 30.11 in 10.0 mi Calm Calm - N/A   Clear
2:53 PM 28.0 °F 22.8 °F 10.0 °F 47% 30.12 in 10.0 mi SSE 4.6 mph - N/A   Clear
3:53 PM 24.1 °F 16.0 °F 8.1 °F 51% 30.13 in 10.0 mi ESE 6.9 mph - N/A   Clear
4:53 PM 21.9 °F - 3.0 °F 44% 30.16 in 10.0 mi Calm Calm - N/A   Clear
5:53 PM 15.1 °F 6.4 °F 5.0 °F 64% 30.20 in 10.0 mi NNW 5.8 mph - N/A   Clear
6:53 PM 14.0 °F 8.2 °F 3.0 °F 62% 30.23 in 10.0 mi NW 3.5 mph - N/A   Clear
7:53 PM 8.1 °F - 1.9 °F 76% 30.26 in 10.0 mi Calm Calm - N/A   Clear
8:53 PM 7.0 °F 0.1 °F 1.9 °F 80% 30.26 in 10.0 mi SSE 3.5 mph - N/A   Clear
9:53 PM 7.0 °F 0.1 °F 1.9 °F 80% 30.25 in 10.0 mi SSE 3.5 mph - N/A   Clear
10:53 PM 5.0 °F -2.1 °F -0.9 °F 76% 30.25 in 10.0 mi South 3.5 mph - N/A   Clear
11:53 PM 3.0 °F -4.4 °F -0.0 °F 87% 30.25 in 10.0 mi WNW 3.5 mph - N/A   Clear